Time,TemperatureF,DewpointF,PressureIn,WindDirection,WindDirectionDegrees,WindSpeedMPH,WindSpeedGustMPH,Humidity,HourlyPrecipIn,Conditions,Clouds,dailyrainin,SoftwareType,DateUTC
2013-08-17 00:01:00,64.4,54.5,30.17,North,0,0.0,0.0,70,0.00,,,0.00,WUHU216HW,2013-08-17 04:01:00,
2013-08-17 00:07:00,64.4,54.5,30.18,North,0,0.0,0.0,70,0.00,,,0.00,WUHU216HW,2013-08-17 04:07:00,
2013-08-17 00:12:00,64.4,54.5,30.18,North,0,0.0,0.0,70,0.00,,,0.00,WUHU216HW,2013-08-17 04:12:00,
2013-08-17 00:17:00,64.3,54.4,30.18,North,0,0.0,0.0,70,0.00,,,0.00,WUHU216HW,2013-08-17 04:17:00,
2013-08-17 00:22:00,64.3,54.4,30.18,North,0,0.0,0.0,70,0.00,,,0.00,WUHU216HW,2013-08-17 04:22:00,
2013-08-17 00:27:00,64.1,54.5,30.19,North,0,0.0,0.0,71,0.00,,,0.00,WUHU216HW,2013-08-17 04:27:00,
2013-08-17 00:32:00,63.9,54.4,30.19,North,0,0.0,0.0,71,0.00,,,0.00,WUHU216HW,2013-08-17 04:32:00,
2013-08-17 00:37:00,63.7,54.5,30.19,North,0,0.0,0.0,72,0.00,,,0.00,WUHU216HW,2013-08-17 04:37:00,
2013-08-17 00:42:00,63.7,54.5,30.19,North,0,0.0,0.0,72,0.00,,,0.00,WUHU216HW,2013-08-17 04:42:00,
2013-08-17 00:47:00,63.7,54.5,30.18,North,0,0.0,0.0,72,0.00,,,0.00,WUHU216HW,2013-08-17 04:47:00,
2013-08-17 00:52:00,63.5,54.7,30.18,North,0,0.0,0.0,73,0.00,,,0.00,WUHU216HW,2013-08-17 04:52:00,
2013-08-17 00:57:00,63.4,54.5,30.19,North,0,0.0,0.0,73,0.00,,,0.00,WUHU216HW,2013-08-17 04:57:00,
2013-08-17 01:03:00,63.2,54.4,30.19,North,0,0.0,0.0,73,0.00,,,0.00,WUHU216HW,2013-08-17 05:03:00,
2013-08-17 01:08:00,63.0,54.5,30.19,North,0,0.0,0.0,74,0.00,,,0.00,WUHU216HW,2013-08-17 05:08:00,
2013-08-17 01:13:00,63.0,54.5,30.19,North,0,0.0,0.0,74,0.00,,,0.00,WUHU216HW,2013-08-17 05:13:00,
2013-08-17 01:18:00,63.0,54.5,30.18,North,0,0.0,0.0,74,0.00,,,0.00,WUHU216HW,2013-08-17 05:18:00,
2013-08-17 01:23:00,62.8,54.4,30.18,North,0,0.0,0.0,74,0.00,,,0.00,WUHU216HW,2013-08-17 05:23:00,
2013-08-17 01:28:00,62.6,54.2,30.17,North,0,0.0,0.0,74,0.00,,,0.00,WUHU216HW,2013-08-17 05:28:00,
2013-08-17 01:33:00,62.6,54.2,30.17,North,0,0.0,0.0,74,0.00,,,0.00,WUHU216HW,2013-08-17 05:33:00,
2013-08-17 01:38:00,62.5,54.0,30.17,North,0,0.0,0.0,74,0.00,,,0.00,WUHU216HW,2013-08-17 05:38:00,
2013-08-17 01:43:00,62.3,54.2,30.17,North,0,0.0,0.0,75,0.00,,,0.00,WUHU216HW,2013-08-17 05:43:00,
2013-08-17 01:48:00,62.3,54.2,30.18,North,0,0.0,0.0,75,0.00,,,0.00,WUHU216HW,2013-08-17 05:48:00,
2013-08-17 01:53:00,62.3,54.2,30.18,North,0,0.0,0.0,75,0.00,,,0.00,WUHU216HW,2013-08-17 05:53:00,
2013-08-17 01:59:00,61.9,54.3,30.18,North,0,0.0,0.0,76,0.00,,,0.00,WUHU216HW,2013-08-17 05:59:00,
2013-08-17 02:04:00,61.9,54.3,30.18,North,0,0.0,0.0,76,0.00,,,0.00,WUHU216HW,2013-08-17 06:04:00,
2013-08-17 02:09:00,61.7,54.1,30.18,North,0,0.0,0.0,76,0.00,,,0.00,WUHU216HW,2013-08-17 06:09:00,
2013-08-17 02:14:00,61.7,54.1,30.18,North,0,0.0,0.0,76,0.00,,,0.00,WUHU216HW,2013-08-17 06:14:00,
2013-08-17 02:19:00,61.6,53.9,30.18,North,0,0.0,0.0,76,0.00,,,0.00,WUHU216HW,2013-08-17 06:19:00,
2013-08-17 02:24:00,61.6,53.9,30.18,North,0,0.0,0.0,76,0.00,,,0.00,WUHU216HW,2013-08-17 06:24:00,
2013-08-17 02:29:00,61.4,54.1,30.18,North,0,0.0,0.0,77,0.00,,,0.00,WUHU216HW,2013-08-17 06:29:00,
2013-08-17 02:34:00,61.2,54.0,30.18,North,0,0.0,0.0,77,0.00,,,0.00,WUHU216HW,2013-08-17 06:34:00,
2013-08-17 02:39:00,61.2,54.4,30.18,North,0,0.0,0.0,78,0.00,,,0.00,WUHU216HW,2013-08-17 06:39:00,
2013-08-17 02:44:00,61.2,54.4,30.18,North,0,0.0,0.0,78,0.00,,,0.00,WUHU216HW,2013-08-17 06:44:00,
2013-08-17 02:49:00,61.2,54.4,30.18,North,0,0.0,0.0,78,0.00,,,0.00,WUHU216HW,2013-08-17 06:49:00,
2013-08-17 02:54:00,61.2,54.4,30.18,North,0,0.0,0.0,78,0.00,,,0.00,WUHU216HW,2013-08-17 06:54:00,
2013-08-17 02:59:00,61.0,54.6,30.18,North,0,0.0,0.0,79,0.00,,,0.00,WUHU216HW,2013-08-17 06:59:00,
2013-08-17 03:05:00,60.8,54.4,30.18,North,0,0.0,0.0,79,0.00,,,0.00,WUHU216HW,2013-08-17 07:05:00,
2013-08-17 03:10:00,60.8,54.4,30.18,North,0,0.0,0.0,79,0.00,,,0.00,WUHU216HW,2013-08-17 07:10:00,
2013-08-17 03:15:00,61.0,54.6,30.18,North,0,0.0,0.0,79,0.00,,,0.00,WUHU216HW,2013-08-17 07:15:00,
2013-08-17 03:20:00,61.0,54.6,30.18,North,0,0.0,0.0,79,0.00,,,0.00,WUHU216HW,2013-08-17 07:20:00,